North Myrtle Beach, SC

4:11 PM EST on December 06, 2019 (GMT -0500)
Grand Strand

Weather History for KCRE - October, 2019

Change the Weather History Date:

Tuesday, October 8, 2019

  Actual Average Record
Temperature  
Mean Temperature 72 °F 68 °F  
Max Temperature 78 °F 77 °F 91 °F (1989)
Min Temperature 66 °F 59 °F 42 °F (2001)
Degree Days  
Heating Degree Days 0 1  
Month to date heating degree days 0 8  
Since 1 July heating degree days 0 12  
Cooling Degree Days 7 4  
Month to date cooling degree days 95 42  
Year to date cooling degree days 2278 1826  
Growing Degree Days 22 (Base 50)    
Moisture  
Dew Point 66 °F    
Average Humidity 81    
Maximum Humidity 100    
Minimum Humidity 62    
Precipitation  
Precipitation T in 0.13 in 7.94 in (2016)
Month to date precipitation 0.03 1.15  
Year to date precipitation 42.60 42.78  
Sea Level Pressure  
Sea Level Pressure 29.98 in    
Wind  
Wind Speed 11 mph (NNE)    
Max Wind Speed 20 mph    
Max Gust Speed 29 mph    
Visibility 10 miles    
Events Rain    
T = Trace of Precipitation, MM = Missing Value Source: NWS Daily Summary

Daily Weather History Graph

Daily Weather History Graph

Search for Another Location

Airport or City:

Astronomy

Oct. 08, 2019 Rise Set
Actual Time 7:14 AM EDT 6:50 PM EDT
Civil Twilight 6:49 AM EDT 7:15 PM EDT
Nautical Twilight 6:20 AM EDT 7:43 PM EDT
Astronomical Twilight 5:51 AM EDT 8:12 PM EDT
Moon 4:31 PM EDT (10/8) 2:20 AM EDT (10/8)
Length of Visible Light 12h 25m
Length of Day
11h 35m
Waxing Gibbous, 77% of the Moon is Illuminated
Oct 8
Waxing Gibbous
Oct 13
Full
Oct 21
Last Quarter
Oct 27
New
Nov 4
First Quarter

Hourly Weather History & Observations

Time (EDT) Temp. Dew Point Humidity Pressure Visibility Wind Dir Wind Speed Gust Speed Precip Events Conditions
12:53 AM 72.0 °F 69.1 °F 91% 29.98 in 10.0 mi North 5.8 mph - N/A   Clear
1:53 AM 71.1 °F 69.1 °F 93% 29.98 in 10.0 mi North 5.8 mph - N/A   Clear
2:53 AM 70.0 °F 68.0 °F 93% 29.95 in 10.0 mi NNE 5.8 mph - N/A   Clear
3:53 AM 71.1 °F 69.1 °F 93% 29.93 in 10.0 mi NE 8.1 mph - N/A   Clear
4:53 AM 70.0 °F 69.1 °F 97% 29.93 in 10.0 mi North 4.6 mph - N/A   Clear
5:53 AM 70.0 °F 68.0 °F 93% 29.94 in 10.0 mi North 4.6 mph - N/A   Clear
6:53 AM 70.0 °F 68.0 °F 93% 29.95 in 10.0 mi North 8.1 mph - N/A   Clear
7:14 AM 70.0 °F 68.0 °F 93% 29.94 in 10.0 mi North 10.4 mph - N/A   Scattered Clouds
7:26 AM 70.0 °F 68.0 °F 93% 29.94 in 10.0 mi NNE 10.4 mph - N/A   Mostly Cloudy
7:53 AM 71.1 °F 68.0 °F 90% 29.95 in 10.0 mi NE 11.5 mph - N/A   Overcast
8:53 AM 72.0 °F 68.0 °F 87% 29.96 in 10.0 mi NNE 13.8 mph 21.9 mph N/A   Mostly Cloudy
9:50 AM 73.4 °F 68.0 °F 83% 29.96 in 10.0 mi NNE 15.0 mph - N/A   Scattered Clouds
9:51 AM 73.0 °F 68.0 °F 84% 29.97 in 10.0 mi NNE 16.1 mph 20.7 mph N/A   Scattered Clouds
10:10 AM 73.9 °F 66.9 °F 79% 29.97 in 10.0 mi NNE 12.7 mph 23.0 mph N/A   Mostly Cloudy
10:37 AM 73.9 °F 66.0 °F 76% 29.98 in 10.0 mi NNE 15.0 mph 20.7 mph N/A   Scattered Clouds
11:03 AM 75.0 °F 66.0 °F 73% 29.98 in 10.0 mi NNE 12.7 mph 21.9 mph N/A   Mostly Cloudy
11:12 AM 75.0 °F 66.0 °F 73% 29.99 in 10.0 mi NNE 11.5 mph - N/A   Scattered Clouds
11:53 AM 78.1 °F 64.9 °F 64% 29.98 in 10.0 mi NNE 12.7 mph 19.6 mph N/A   Partly Cloudy
12:53 PM 78.1 °F 64.9 °F 64% 29.98 in 10.0 mi North 16.1 mph 21.9 mph N/A   Scattered Clouds
1:53 PM 75.9 °F 66.0 °F 71% 29.96 in 10.0 mi NNE 12.7 mph 18.4 mph 0.00 in Rain Light Rain
2:37 PM 75.9 °F 66.0 °F 71% 29.96 in 10.0 mi North 10.4 mph - 0.00 in   Overcast
2:53 PM 75.0 °F 64.9 °F 71% 29.96 in 10.0 mi North 15.0 mph 23.0 mph 0.00 in   Overcast
3:53 PM 73.9 °F 64.0 °F 71% 29.97 in 10.0 mi NNE 8.1 mph - N/A   Overcast
4:53 PM 72.0 °F 63.0 °F 73% 29.98 in 10.0 mi North 10.4 mph 19.6 mph N/A   Overcast
5:53 PM 71.1 °F 63.0 °F 75% 29.98 in 10.0 mi North 11.5 mph 17.3 mph N/A   Overcast
6:53 PM 70.0 °F 62.1 °F 76% 30.00 in 10.0 mi NNE 11.5 mph 18.4 mph N/A   Overcast
7:48 PM 68.0 °F 62.6 °F 83% 30.00 in 10.0 mi North 11.5 mph - N/A   Overcast
7:53 PM 68.0 °F 63.0 °F 84% 30.01 in 10.0 mi North 15.0 mph 20.7 mph N/A   Overcast
8:53 PM 68.0 °F 62.1 °F 81% 30.02 in 10.0 mi North 11.5 mph - N/A   Overcast
9:53 PM 68.0 °F 61.0 °F 78% 30.03 in 10.0 mi North 12.7 mph - N/A   Overcast
10:53 PM 66.9 °F 61.0 °F 81% 30.04 in 10.0 mi North 10.4 mph - N/A   Overcast
11:53 PM 66.9 °F 61.0 °F 81% 30.04 in 10.0 mi NNE 12.7 mph - N/A   Overcast